Погода в Уеге

Погода в Уеге : погода сейчас, прогноз погоды и архив. Всё, что Вы хотите узнать о погоде в Уеге!

Поиск расширенной информации на нашем сайте:

Другие новости

Новости СМИ2

Главная страница сайта

Новости сайта

03.07.2017

Напоминаем, что на нашем специализированном сайте Метеоцентр.Азия вы можете получить высокодетализированные автоматические прогнозы погоды по пунктам России, СНГ и мира в авиационном формате (включающие направление и скорость ветра, видимость, явления погоды, количество и форму облачности, нижнюю и верхнюю границу облачности).

Рекомендуем: Полезные советы для девушек и женщин http://best-womens.ru

Погода в Уеге - сегодня

Время (UTC), дата Ветер
(°,м/с) 
Видим.   Явления Облачность Т
(°С)
Тd
(°С)
f(%) Тe
(°С)
Pmin
(гПа)
dP
(гПа)
Po
(мм)
O2
(г/м3)
Тmin Tmax R s Состояние
почвы
03 20.07.17 350 (С) 20000 м  {ливн. осадки}  10/10 300 м кучево-дожд. 
[Cb cap]
+11.3 +9.8 90 +14  1004.9  0.1  719  276           
06 20.07.17 340 (С) 4000 м  морось{ливн. осадки}  10/10 300 м 
[St]
+10.5 +9.7 95 +13  1005.4  0.4  719  277           
09 20.07.17 320 (СЗ) 20000 м  в посл. час морось  10/10 300 м 
[St]
+10.3 +9.8 97 +13  1006.2  0.7  720  278    +11.3  12     
12 20.07.17 340 (С) 20000 м  в посл. час ливневой дождь{морось}  10/10 300 м кучево-дожд. 
[Cb cap]
+10.1 +9.7 97 +13  1006.4  0.2  720  278           
15 20.07.17 330 (СЗ) 20000 м    10/10 300 м кучево-дожд. 
[Cb cap]
+10 +9.5 97 +12  1006.2  -0.2  720  278           
18 20.07.17 340 (С) 20000 м    10/10 300 м кучево-дожд. 
[Cb cap]
+9.8 +9.4 97 +12  1005.8  -0.4  719  278           
21 20.07.17 330 (СЗ) 20000 м    10/10 300 м кучево-дожд. 
[Cb cap]
+10 +9.3 95 +11  1006.1  0.2  719  278  +9.6      мокрая 
00 21.07.17 360 (С) 20000 м    10/10 300 м 
[St]
+12.3 +10.7 90 +16  1005.9  0.2  720  275           
03 21.07.17 180 (Ю) 20000 м    10/10 600 м кучево-дожд. 
[Cb cap]
+13.2 +10.2 82 +16  1005.7  720  275           
06 21.07.17 270 (З) 20000 м    10/10 600 м кучево-дожд. 
[Cb cap]
+13.6 +9.3 75 +16  1005.9  0.2  720  275           
09 21.07.17 тихо ()   20000 м    10/10 600 м кучево-дожд. 
[Cb cap]
+13.5 +10.4 82 +16  1006.1  0.2  720  274    +14.3       
12 21.07.17 тихо ()   20000 м    9/9 600 м кучево-дожд. 
[Cb cap]
+11 +10.4 96 +14  1006.8  0.3  720  277           
15 21.07.17 300 (СЗ) 20000 м    6/6 1000 м 
[Sc]
+8.3 +8.1 99 +9  1006.7  -0.5  720  280           
18 21.07.17 340 (С) 20000 м    9/9 1000 м 
[Sc]
+7.3 +7.2 99 +8  1006.7  -0.2  720  281           
21 21.07.17 010 (С) 20000 м    8/8 1000 м 
[Sc]
+11.4 +9 85 +14  1005.4  -0.5  719  276  +5.9        влажная 
00 22.07.17 140 (ЮВ) 20000 м    4/4 600 м кучево-дожд. 
[Cb cap]
+16.7 +9.9 64 +20  1003  -1.4  718  271           
03 22.07.17 270 (З) 20000 м    8/8 600 м кучево-дожд. 
[Cb cap]
+19 +9.8 55 +23  1001.1  -1.4  717  268           
06 22.07.17 160 (Ю) 20000 м    4/3 600 м кучево-дожд., верхняя 
[Cb cap|Ci fib]
+21.7 +9.4 45 +23  998.9  -1.7  716  265           
09 22.07.17 170 (Ю) 20000 м    8/4 1000 м верхняя 
[Sc|Ci fib]
+20.8 +9.9 50 +23  998.5  -0.6  715  266    +22.1       
12 22.07.17 150 (ЮВ) 20000 м    6/4 1000 м верхняя 
[Sc|Ci fib]
+15.3 +12.1 81 +21  1000.2  0.8  716  271           
15 22.07.17 180 (Ю) 4000 м    9/9 1000 м 
[Sc]
+13.2 +11.7 91 +19  1000.1  -0.4  716  273           
18 22.07.17 тихо ()   20000 м    9/9 1000 м 
[Sc]
+10.6 +9.7 94 +12  1000.2  -0.4  715  276           
21 22.07.17 160 (Ю) 20000 м    4/3 1000 м верхняя 
[Sc|Ci fib]
+12.3 +9.2 81 +14  1000.4  0.5  716  274  +10.1        влажная 
00 23.07.17 120 (ЮВ) 20000 м    3/3 600 м кучево-дожд. 
[Cb cap]
+17.6 +6.5 48 +18  999.4  -0.2  716  270           
03 23.07.17 270 (З) 20000 м    4/4 600 м кучево-дожд. 
[Cb cap]
+18.7 +0.6 30 +19  999.9  0.6  716  270           
Время (UTC), дата Ветер
(°,м/с) 
Видим.   Явления Облачность Т
(°С)
Тd
(°С)
f(%) Тe
(°С)
Pmin
(гПа)
dP
(гПа)
Po
(мм)
O2
(г/м3)
Тmin Tmax R s Состояние
почвы

Для получения пояснительной информации подведите курсор к названию столбца.

ПОГОДА в Уеге - архив

Всё, что Вы хотите узнать о погоде в Уеге - удобно и подробно!

Выберите нужную дату (начиная с 1 января 2015* года) и нажмите кнопку "Найти".
Будут отображены архивные сводки погоды по пункту Уега, начиная с указанной даты.


Отображать данные в формате CSV (для использования в таблицах Excel)


Внимание! Наш архив погоды предназначен исключительно для личного некоммерческого использования в познавательных целях. Если Вам необходимы официальные справки о состоянии погоды (для производственных, юридических, коммерческих и т.п. целей), обращайтесь в органы Росгидромета.

*Примечание: данная дата относится к архиву по метеостанциям СССР (Россия, СНГ, Балтия).
Архив по метеостанциям Зарубежной Европы и Азии (кроме Китая) хранится 10 дней, по другим регионам земного шара (Китай, Африка, Америка, Австралия, Океания) - 1 день.

Уега - район местоположения метеостанции


Название, широта, долгота, высота метеостанции:
Уега 60.7°ш. 142.8°д. 398 м над ур. моря [Российская Федерация]

Дополнительная информация

В oтличие oт бoльшинства пoгoдных сайтoв мы публикуем пoдрoбную метеoинфoрмацию в детальнoм прoфессиoнальнoм фoрмате.

Характеристики температуры и влажнoсти вoздуха измеряются на высoте 2 м в тени вдали oт зданий и деревьев.
Скoрoсть ветра измеряется на высoте 10 м (на урoвне рoста челoвека скoрoсть ветра ниже в 1.5-2 раза). Если метеoстанция нахoдится в гoрoде или в лесу, тo скoрoсть ветра занижена на 2-4 м/с пo сравнению с oткрытым местoм. Скoрoсть ветра над акватoриями крупных рек и oзёр, а также на вершинах хoлмoв на 2-5 м/с выше, чем в oбычных услoвиях.
Атмoсфернoе давление в разных тoчках местнoсти мoжет значительнo oтличаться oт давления на метеoстанции, в зависимoсти oт услoвий рельефа (при пoдъёме на 10 м давление пoнижается примернo на 1 мм рт.ст.).